Weather in Peschanoye

Russia / Chelyabinsk Oblast     54°22′44″N   61°25′15″E
temp.,
°C
wind,
m/s
gust,
m/s
humid.,
%
clouds,
%
prec.,
mm/h
press.,
hPa
HPBL,
m
4 march, thu
thu423:00−5ssw489397 0.2 1001158
02:00−7sw349493 0.0 100061
05:00−10wsw239183 0.0 100021
08:00−11wsw348849 0.0 99929
11:00−6w478630 0.0 1000227
14:00−3wnw69786 0.0 10001066
17:00−5wsw478223 0.0 1002238
20:00−8sw5128313 0.0 1003248
5 march, fri
fri523:00−7sw6158440 0.0 1003485
02:00−6sw91782100 0.0 1000649
05:00−4sw91883100 0.0 998721
08:00−2sw91782100 0.0 998742
11:000wsw91480100 0.0 10001059
14:000sw81380100 0.0 10011099
17:000sw81480100 0.0 1002711
20:00−2sw61484100 0.0 1002533
6 march, sat
sat623:00−4nnw4896100 0.4 1004313
02:00−8wnw478799 0.1 1007152
05:00−14wnw478662 0.1 1010103
08:00−16w348314 0.0 101230
11:00−10wsw347913 0.0 1012175
14:00−7ssw468117 0.0 1012282
17:00−8ssw358849 0.0 1011142
20:00−11ssw348793 0.0 101139
7 march, sun
sun723:00−11s239197 0.0 100925
02:00−10se1291100 0.0 100621
05:00−10nne2396100 0.4 100588
08:00−11n359699 0.4 1005157
11:00−10n469499 0.6 1007319
14:00−8n4691100 0.2 1008517
17:00−8n2389100 0.3 1009188
20:00−12nw339186 0.1 101150
8 march, mon
mon823:00−17nnw338585 0.2 101420
02:00−19nw228893 0.0 101420
05:00−21wsw128773 0.0 101520
08:00−20s469036 0.0 1014112
11:00−14s7129368 0.1 1011402
14:00−8ssw91486100 0.3 1009819
17:00−5sw81482100 0.4 1009993
20:00−8sw5128663 0.0 1010277